Skip Page Navigation
NASA JPL Caltech
NASA Logo - Jet Propulsion Laboratory + View the NASA Portal
+ Center for Near-Earth Object Studies
JPL Home Earth Solar System Stars & Galaxies Technology
JPL Solar System Dynamics
BODIES ORBITS EPHEMERIDES TOOLS PHYSICAL DATA DISCOVERY FAQ SITE MAP
IMPORTANT: The SSD Announcement email list is now available. Major changes are coming in the near future, including possible hostname and/or URL changes. To be notified of such changes, subscribe to this email list.

Please visit this page for more details.


JPL Small-Body Database Browser
Search: [ help ]  
413941 (2006 YP19)
Classification: Main-belt Asteroid          SPK-ID: 2413941
Ephemeris | Orbit Diagram | Orbital Elements | Mission Design | Physical Parameters | Discovery Circumstances ]

[ show orbit diagram ]
Orbital Elements at Epoch 2458600.5 (2019-Apr-27.0) TDB
Reference: JPL 12 (heliocentric ecliptic J2000)
 Element Value Uncertainty (1-sigma)   Units 
e .1488963254009129 1.3634e-07  
a 2.605830130635447 4.3704e-08 au
q 2.217831599564849 3.8346e-07 au
i 3.172637892819753 9.1763e-06 deg
node 305.0334931611173 0.00017479 deg
peri 157.2725690310186 0.00018043 deg
M 340.9132731448686 4.956e-05 deg
tp 2458681.960399704376
(2019-Jul-17.46039970)
0.000213 TDB
period 1536.446983087159
4.21
3.8653e-05
1.058e-07
d
yr
n .2343068156355499 5.8946e-09 deg/d
Q 2.993828661706046 5.0212e-08 au
  Orbit Determination Parameters
   # obs. used (total)      98  
   data-arc span      5742 days (15.72 yr)  
   first obs. used      2003-01-25  
   last obs. used      2018-10-15  
   planetary ephem.      DE431  
   SB-pert. ephem.      SB431-N16  
   condition code      0  
   norm. resid. RMS      .67476  
   source      ORB  
   producer      Otto Matic  
   solution date      2018-Oct-31 05:17:59  

Additional Information
 Earth MOID = 1.23527 au 
 Jupiter MOID = 2.14618 au 
 T_jup = 3.394 
[ show covariance matrix ]

Ephemeris | Orbit Diagram | Orbital Elements | Mission Design | Physical Parameters | Discovery Circumstances ]

Physical Parameter Table
Parameter Symbol Value Units Sigma Reference Notes
absolute magnitude H 17.6   n/a MPO460573  

413941 (2006 YP19)          Discovered 2006-Dec-24 by Bickel, W. at Bergisch Gladbach
Reference: Last Updated: 2014-11-10
Ephemeris | Orbit Diagram | Orbital Elements | Mission Design | Physical Parameters | Discovery Circumstances ]
ABOUT SSD CREDITS/AWARDS PRIVACY/COPYRIGHT GLOSSARY LINKS
FirstGov
(server date/time)  
NASA Home Page
Site Manager:   Ryan S. Park
Webmaster  Alan B. Chamberlin